Location: Observatoire
(46.1952°N, 5.3391°E)
Time: 02:01:08
(UTC+01:00)

A-11 Canister half - Visible Passes

Search period start: 07 February 2026 00:00
Search period end: 17 February 2026 00:00
Orbit: 1512 x 1688 km, 47.2° (Epoch: 6 February)

Date Brightness Start Highest point End Pass type
(mag) Time Alt. Az. Time Alt. Az. Time Alt. Az.
7 Feb 10.7 02:21:46 21° ENE 02:21:46 21° ENE 02:24:12 10° ENE visible
7 Feb 8.8 04:19:57 86° NE 04:19:57 86° NE 04:29:17 10° E visible
7 Feb 9.1 06:18:08 22° WNW 06:24:33 59° SSW 06:33:35 10° SE visible
8 Feb 11.0 01:59:58 15° ENE 01:59:58 15° ENE 02:01:10 10° ENE visible
8 Feb 9.1 03:58:09 70° E 03:58:09 70° E 04:06:14 10° E visible
8 Feb 9.1 05:56:21 29° W 06:01:33 62° SSW 06:10:39 10° SE visible
9 Feb 9.4 03:36:24 54° E 03:36:24 54° E 03:43:12 10° E visible
9 Feb 9.0 05:34:35 38° W 05:38:32 64° SSW 05:47:41 10° SE visible
10 Feb 9.8 03:14:41 41° E 03:14:41 41° E 03:20:09 10° E visible
10 Feb 8.9 05:12:53 50° W 05:15:31 67° SSW 05:24:44 10° SE visible
10 Feb 10.0 07:11:45 10° W 07:19:07 26° SW 07:26:19 10° S visible
11 Feb 10.2 02:53:01 30° E 02:53:01 30° E 02:57:06 10° E visible
11 Feb 8.8 04:51:13 63° WSW 04:52:30 69° SSW 05:01:46 10° SE visible
11 Feb 9.9 06:49:25 13° W 06:56:10 28° SW 07:03:37 10° S visible
12 Feb 10.6 02:31:24 22° E 02:31:24 22° E 02:34:03 10° E visible
12 Feb 8.8 04:29:36 72° SSW 04:29:36 72° SSW 04:38:48 10° SE visible
12 Feb 9.8 06:27:49 18° W 06:33:14 30° SW 06:40:54 10° S visible
12 Feb 11.0 21:43:25 10° SSW 21:43:42 11° SSW 21:43:42 11° SSW visible
13 Feb 10.9 02:09:52 15° E 02:09:52 15° E 02:11:01 10° E visible
13 Feb 9.1 04:08:04 63° SSE 04:08:04 63° SSE 04:15:49 10° ESE visible
13 Feb 9.7 06:06:16 23° W 06:10:17 32° SW 06:18:09 10° SSE visible
13 Feb 10.6 21:20:36 10° SSW 21:22:44 17° S 21:22:44 17° S visible
14 Feb 9.5 03:46:36 48° SE 03:46:36 48° SE 03:52:49 10° ESE visible
14 Feb 9.6 05:44:48 30° WSW 05:47:20 34° SW 05:55:23 10° SSE visible
14 Feb 10.3 20:57:48 10° S 21:01:46 22° S 21:01:46 22° S visible
15 Feb 10.0 03:25:12 34° ESE 03:25:12 34° ESE 03:29:49 10° ESE visible
15 Feb 9.4 05:23:25 35° SW 05:24:23 36° SW 05:32:36 10° SSE visible
15 Feb 10.1 20:35:02 10° S 20:40:48 26° SSE 20:40:48 26° SSE visible
15 Feb 10.7 22:37:00 10° SW 22:39:04 18° SW 22:39:04 18° SW visible
16 Feb 10.4 03:03:52 23° ESE 03:03:52 23° ESE 03:06:49 10° ESE visible
16 Feb 9.5 05:02:06 38° SSW 05:02:06 38° SSW 05:09:48 10° SSE visible
16 Feb 9.9 20:12:17 10° S 20:19:49 27° SE 20:19:49 27° SE visible
16 Feb 10.3 22:13:58 10° SW 22:18:04 28° SW 22:18:04 28° SW visible
